Tracking 19795 objects as of 18-Jul-2019
HD Live streaming from Space Station
objects crossing your sky now

NOAA 16 DEB

Track NOAA 16 DEB now!
10-day predictions


NORAD ID: 41095
Int'l Code: 2000-055BE
Perigee: 761.4 km
Apogee: 838.3 km
Inclination: 99.0 °
Period: 100.7 minutes
Semi major axis: 7170 km
RCS: Unknown
Launch date: September 21, 2000
Source: United States (US)
Launch site: AIR FORCE WESTERN TEST RANGE (AFWTR)

Note: This is SATELLITE DEBRIS
aabbcc
Your satellite tracking list
Your tracking list is empty




NASA's NSSDC Master Catalog

Two Line Element Set (TLE):
1 41095U 00055BE  19199.17459664  .00002275  00000-0  89141-3 0  9992
2 41095  98.9917 321.5248 0053634 229.8322 129.8156 14.29705326188893
Source of the keplerian elements: AFSPC